DW0302 Weather Reports


time (UTC)temp
C
wind
direction
speed
KPH
gust
KPH
rain 1hr
cm
rain 24hr
cm
rain mn
cm
humidity
%
barometer
mb
20190418162818 15 279 11.3 20.9 0.00 0.00 0.00 62 1012.2
20190418161817 14 0 14.5 17.7 0.00 0.00 0.00 62 1012.2
20190418160816 14 331 8.0 14.5 0.00 0.00 0.00 64 1012.2
20190418155712 14 11 11.3 14.5 0.00 0.00 0.00 63 1012.2
20190418154607 14 336 16.1 16.1 0.00 0.00 0.00 64 1011.9
20190418153502 14 9 9.7 14.5 0.00 0.00 0.00 64 1011.9
20190418152501 13 349 8.0 14.5 0.00 0.00 0.00 67 1011.5
20190418151500 13 14 6.4 12.9 0.00 0.00 0.00 67 1011.5
20190418150459 13 12 11.3 11.3 0.00 0.00 0.00 70 1011.5
20190418145458 12 294 6.4 16.1 0.00 0.00 0.00 74 1011.2
20190418144456 13 342 12.9 16.1 0.00 0.00 0.00 72 1011.2
20190418143423 12 349 8.0 14.5 0.00 0.00 0.00 76 1010.8
20190418142319 12 306 8.0 12.9 0.00 0.00 0.00 78 1010.5
20190418141318 12 349 12.9 12.9 0.00 0.00 0.00 79 1010.5
20190418140317 12 341 6.4 9.7 0.00 0.00 0.00 81 1010.5
20190418135315 11 33 11.3 16.1 0.00 0.00 0.00 82 1010.5
20190418134210 11 293 8.0 14.5 0.00 0.00 0.00 84 1010.2
20190418133106 11 13 8.0 11.3 0.00 0.00 0.00 86 1010.5
20190418132105 11 12 6.4 11.3 0.00 0.00 0.00 86 1010.5
20190418130928 11 341 8.0 9.7 0.00 0.00 0.00 87 1010.2
20190418125856 11 338 11.3 12.9 0.00 0.00 0.00 88 1010.2
20190418124854 11 2 9.7 11.3 0.00 0.00 0.00 88 1009.5
20190418123822 11 7 8.0 11.3 0.00 0.00 0.00 88 1009.5
20190418122820 11 288 6.4 9.7 0.00 0.00 0.00 88 1009.1
20190418121819 11 343 6.4 8.0 0.00 0.00 0.00 88 1009.1
20190418120714 11 338 8.0 14.5 0.00 0.00 0.00 88 1008.8
20190418115642 11 4 8.0 12.9 0.00 0.00 0.00 88 1008.5
20190418114641 11 352 6.4 12.9 0.00 0.00 0.00 88 1008.1
20190418113640 11 326 9.7 11.3 0.00 0.00 0.00 89 1008.5
20190418112607 11 274 8.0 11.3 0.00 0.00 0.00 89 1007.8
20190418111606 12 328 3.2 11.3 0.00 0.00 0.00 89 1007.8
20190418110605 12 315 6.4 6.4 0.00 0.00 0.00 89 1007.5
20190418105532 12 320 3.2 6.4 0.00 0.00 0.00 88 1006.8
20190418104531 12 330 1.6 4.8 0.00 0.00 0.00 88 1006.4
20190418103355 12 39 3.2 6.4 0.00 0.00 0.00 88 1006.1
20190418102353 12 76 3.2 4.8 0.00 0.00 0.00 88 1005.8
20190418101353 12 6 4.8 6.4 0.00 0.00 0.00 88 1005.4
20190418100351 12 46 3.2 12.9 0.00 0.00 0.00 89 1005.1
20190418095351 12 11 4.8 9.7 0.00 0.00 0.00 89 1005.1
20190418094349 13 13 8.0 12.9 0.00 0.00 0.00 88 1004.7
20190418093317 13 315 12.9 14.5 0.00 0.00 0.00 89 1005.1
20190418092315 13 33 11.3 12.9 0.00 0.00 0.00 90 1005.1
20190418091315 13 345 11.3 14.5 0.00 0.00 0.00 91 1005.1
20190418090313 13 346 8.0 14.5 0.00 0.00 0.00 91 1004.4
20190418083856 13 312 8.0 14.5 0.00 0.00 0.00 90 1004.4
20190418082856 13 344 9.7 11.3 0.00 0.00 0.00 90 1004.7
20190418081615 13 302 8.0 14.5 0.00 0.00 0.00 90 1005.4
20190418080614 13 299 4.8 8.0 0.00 0.00 0.00 90 1005.4
20190418075613 13 334 4.8 6.4 0.00 0.00 0.00 90 1005.1
20190418074507 13 321 4.8 6.4 0.00 0.00 0.00 89 1004.7
20190418071218 14 302 4.8 4.8 0.00 0.00 0.00 87 1004.4
20190418070217 14 346 3.2 4.8 0.00 0.00 0.00 87 1004.4
20190418065216 14 315 3.2 4.8 0.00 0.00 0.00 85 1004.4
20190418064215 14 293 0.0 3.2 0.00 0.00 0.00 85 1004.7
20190418063111 14 288 1.6 3.2 0.00 0.00 0.00 85 1004.4
20190418062110 14 342 3.2 3.2 0.00 0.00 0.00 84 1004.4
20190418061109 15 322 1.6 1.6 0.00 0.00 0.00 84 1004.4
20190418060108 15 225 1.6 1.6 0.00 0.00 0.00 83 1005.4
20190418055107 15 225 0.0 0.0 0.00 0.00 0.00 83 1005.4
20190418054035 15 225 0.0 0.0 0.00 0.00 0.00 83 1005.1
20190418052930 15 225 0.0 0.0 0.00 0.00 0.00 83 1005.4
20190418051929 15 225 0.0 1.6 0.00 0.00 0.00 82 1005.1
20190418050856 15 324 0.0 3.2 0.00 0.00 0.00 82 1005.1
20190418045823 15 338 0.0 1.6 0.00 0.00 0.00 81 1005.1
20190418044821 15 225 1.6 3.2 0.00 0.00 0.00 81 1005.1
20190418043749 15 219 1.6 6.4 0.00 0.00 0.00 79 1005.1
20190418042747 15 248 1.6 12.9 0.00 0.00 0.00 77 1005.8
20190418041611 17 291 6.4 12.9 0.00 0.00 0.00 72 1005.8
20190418040609 18 269 8.0 9.7 0.00 0.00 0.00 72 1005.1
20190418035505 18 69 4.8 11.3 0.00 0.00 0.00 77 1004.4
20190418034503 18 349 8.0 14.5 0.00 0.00 0.00 77 1004.4
20190418033430 19 338 14.5 17.7 0.00 0.00 0.00 72 1003.7
20190418032429 21 323 6.4 8.0 0.00 0.00 0.00 78 1003.7
20190418031428 21 173 4.8 8.0 0.00 0.00 0.00 82 1002.7
20190418030251 21 203 12.9 17.7 0.00 0.00 0.00 82 1002.4
20190418025251 21 185 8.0 14.5 0.00 0.00 0.00 81 1002.0
20190418024218 21 180 12.9 14.5 0.00 0.00 0.00 80 1002.4
20190418023145 21 144 6.4 8.0 0.00 0.00 0.00 80 1002.4
20190418022144 21 153 4.8 9.7 0.00 0.00 0.00 79 1002.4
20190418021143 21 169 6.4 11.3 0.00 0.00 0.00 79 1003.0
20190418020142 21 189 9.7 12.9 0.00 0.00 0.00 78 1003.4
20190418015109 21 172 8.0 11.3 0.00 0.00 0.00 76 1003.4
20190418014108 21 203 4.8 6.4 0.00 0.00 0.00 76 1003.0
20190418013107 22 158 6.4 11.3 0.00 0.00 0.00 75 1003.0
20190418012002 22 151 6.4 9.7 0.00 0.00 0.00 75 1003.0
20190418010857 22 135 3.2 3.2 0.00 0.00 0.00 73 1003.0
20190418005856 22 135 1.6 4.8 0.00 0.00 0.00 72 1002.4
20190418004855 22 118 3.2 4.8 0.00 0.00 0.00 71 1002.7
20190418003855 23 135 1.6 6.4 0.00 0.00 0.00 70 1002.7
20190418002853 23 146 3.2 8.0 0.00 0.00 0.00 70 1002.7
20190418001821 23 149 1.6 6.4 0.00 0.00 0.00 69 1003.0
20190418000820 23 146 4.8 9.7 0.00 0.00 0.00 67 1002.7
20190417233241 24 192 6.4 9.7 0.00 0.00 0.00 66 1002.7
20190417232208 24 179 8.0 14.5 0.00 0.00 0.00 66 1002.7
20190417231207 24 186 12.9 16.1 0.00 0.00 0.00 66 1002.7
20190417230206 25 158 8.0 12.9 0.00 0.00 0.00 66 1002.7
20190417225205 25 182 6.4 17.7 0.00 0.00 0.00 66 1002.7
20190417224132 25 171 9.7 12.9 0.00 0.00 0.00 66 1002.7
20190417223131 25 170 4.8 12.9 0.00 0.00 0.00 66 1003.0
20190417222130 25 169 11.3 12.9 0.00 0.00 0.00 64 1003.0
20190417221129 25 171 17.7 20.9 0.00 0.00 0.00 63 1002.7
20190417215952 25 158 14.5 17.7 0.00 0.00 0.00 63 1002.7
20190417214919 26 188 9.7 17.7 0.00 0.00 0.00 62 1002.7
20190417213743 25 190 16.1 17.7 0.00 0.00 0.00 62 1003.0
20190417212710 26 192 9.7 17.7 0.00 0.00 0.00 61 1003.0
20190417211605 26 198 11.3 16.1 0.00 0.00 0.00 62 1003.0
20190417210459 25 185 17.7 22.5 0.00 0.00 0.00 61 1003.7
20190417205458 26 203 12.9 17.7 0.00 0.00 0.00 62 1003.7
20190417204457 26 189 16.1 19.3 0.00 0.00 0.00 60 1004.1
20190417203425 26 203 12.9 19.3 0.00 0.00 0.00 62 1004.1
20190417202424 25 171 16.1 24.1 0.00 0.00 0.00 63 1004.4
20190417201247 25 176 11.3 19.3 0.00 0.00 0.00 63 1004.4
20190417200214 25 180 12.9 20.9 0.00 0.00 0.00 64 1004.7
20190417195141 25 206 9.7 14.5 0.00 0.00 0.00 65 1004.7
20190417194140 25 194 6.4 14.5 0.00 0.00 0.00 65 1005.1
20190417193004 25 190 8.0 17.7 0.00 0.00 0.00 66 1005.4
20190417192003 24 207 14.5 20.9 0.00 0.00 0.00 67 1005.4
20190417191002 24 180 8.0 17.7 0.00 0.00 0.00 67 1005.8
20190417184728 23 166 9.7 14.5 0.00 0.00 0.00 70 1006.1
20190417183624 23 189 8.0 14.5 0.00 0.00 0.00 69 1006.1
20190417182449 23 216 14.5 19.3 0.00 0.00 0.00 69 1006.1
20190417181312 22 185 9.7 14.5 0.00 0.00 0.00 72 1006.1
20190417180311 23 192 8.0 19.3 0.00 0.00 0.00 71 1006.1
20190417175311 23 170 6.4 16.1 0.00 0.00 0.00 71 1006.4
20190417174310 23 202 12.9 24.1 0.00 0.00 0.00 71 1006.8
20190417173309 23 222 11.3 17.7 0.00 0.00 0.00 71 1007.1
20190417172236 23 170 17.7 17.7 0.00 0.00 0.00 73 1007.5
20190417171235 22 192 9.7 16.1 0.00 0.00 0.00 75 1007.5